CZ-6A DEB, 56658

Orbit data source: Space-Track

CZ-6A DEB, 56658 is space debris in SSO originally from a launch on Fri, 11 Nov 2022 UTC launched from the Taiyaun Space Center, China (TSC). Debris objects in space refer to the collection of defunct objects orbiting the Earth. Examples of debris include non-operational satellites, rocket bodies, and fragments generated from explosions, collisions, or faulty payload assembly.

Loading next visibility...
Identifier
56658, 2022-151AGJ
Orbit
SSO
Country
Flag of CNCN / PRC
Related business
Manufacturer
SAST
Mission
Spacecraft
Bus & Motor
Unknown
Mass
Unknown
Launch date (UTC)
2022-11-11 (3 years ago)
Launch vehicle
Unknown
Launch site
Taiyaun Space Center, China (TSC)
Object type
Payload
Rocket body
Debris
Shape & HBR
Unknown shape, 0.1 m
Radar Cross Section
Small (<0.1 m²)

Expand to show TLE details & history
Last TLE update: 1 day ago

TLE from 1 day ago
0 CZ-6A DEB
1 56658U 22151AGJ 26129.13985993  .00000106  00000-0  10646-3 0  9995
2 56658  98.8690  89.9196 0128054 176.6224 183.5831 13.92680916154499
Epoch: 2026-05-09T03:21Z
TLE epoch observation values (Epoch: 2026-05-09T03:21:23.897Z)
Latitude
-0.00004°
Longitude
172.60846°
Altitude
1,015.409 km
Speed
7.297 km/s
True Right ascension
05h 59m 40s
True Declination
0° 00' 00"
Sunlit
Object was in daylight at epoch
Visualization orbit readout
Latitude
Unknown
Longitude
Unknown
Altitude
Unknown
Speed
Unknown
Apparent Right ascension
Unknown
Apparent Declination
Unknown
Sunlit
N/A
Visualization observer readout
Local Sidereal Time
19:53:19
Azimuth
Unknown
Elevation
Unknown
Doppler factor
Unknown
Orbital elements
Apogee altitude
1,009.863 km
Perigee altitude
823.043 km
Semi-major axis
7,294.59 km
Eccentricity
0.01281
Inclination
98.869°
RAAN
89.9196°
Arg. of periapsis
176.6224°
True anomaly
183.49284°
Mean anomaly
183.5831°
Eccentric anomaly
183.53783°
Mean motion
3.48371 °/min
Orbital period
103.34 mins
BSTAR
0.00010646
Loading maneuver chart data...
Computing Atmospheric mass density...
Loading historical data...
Loading historical data...
Loading historical data...
Loading historical data...
Loading historical data...
Loading historical data...
Loading historical data...

Documentation

Showing up to 5 results
|